Watsonville, CA

3:24 AM PST on December 09, 2019 (GMT -0800)
Watsonville Municipal

Weather History for KWVI - August, 2019

Change the Weather History Date:

Wednesday, August 21, 2019

  Actual Average Record
Temperature  
Mean Temperature 67 °F 64 °F  
Max Temperature 81 °F 75 °F 83 °F (2008)
Min Temperature 52 °F 53 °F 52 °F (2010)
Degree Days  
Heating Degree Days 0    
Month to date heating degree days 11  
Since 1 June heating degree days 149  
Since 1 July heating degree days 58  
Cooling Degree Days 2    
Month to date cooling degree days 36  
Year to date cooling degree days 90  
Since 1 June cooling degree days 90  
Growing Degree Days 16 (Base 50)    
Moisture  
Dew Point 56 °F    
Average Humidity 71    
Maximum Humidity 100    
Minimum Humidity 42    
Precipitation  
Precipitation 0.00 in - 0.04 in (1951)
Month to date precipitation 0.02  
Year to date precipitation 22.78  
Sea Level Pressure  
Sea Level Pressure 29.96 in    
Wind  
Wind Speed 4 mph (South)    
Max Wind Speed 10 mph    
Max Gust Speed 13 mph    
Visibility 7 miles    
Events Fog    
T = Trace of Precipitation, MM = Missing Value Source: NWS Daily Summary

Daily Weather History Graph

Daily Weather History Graph

Search for Another Location

Airport or City:

Astronomy

Aug. 21, 2019 Rise Set
Actual Time 6:28 AM PDT 7:51 PM PDT
Civil Twilight 6:01 AM PDT 8:18 PM PDT
Nautical Twilight 5:29 AM PDT 8:50 PM PDT
Astronomical Twilight 4:55 AM PDT 9:24 PM PDT
Moon 11:20 PM PDT (8/21) 12:01 PM PDT (8/21)
Length of Visible Light 14h 16m
Length of Day
13h 22m
Waning Gibbous, 68% of the Moon is Illuminated
Aug 21
Waning Gibbous
Aug 23
Last Quarter
Aug 30
New
Sep 5
First Quarter
Sep 13
Full

Hourly Weather History & Observations

Time (PDT) Temp. Heat Index Dew Point Humidity Pressure Visibility Wind Dir Wind Speed Gust Speed Precip Events Conditions
12:53 AM 57.9 °F - 54.0 °F 87% 30.00 in 10.0 mi Calm Calm - N/A   Clear
1:53 AM 57.0 °F - 53.1 °F 87% 30.00 in 10.0 mi North 3.5 mph - N/A   Clear
2:53 AM 55.9 °F - 52.0 °F 87% 29.99 in 10.0 mi NNW 3.5 mph - N/A   Clear
3:53 AM 53.1 °F - 51.1 °F 93% 29.99 in 10.0 mi Calm Calm - N/A   Clear
4:53 AM 53.1 °F - 51.1 °F 93% 29.98 in 10.0 mi Calm Calm - N/A   Mostly Cloudy
5:45 AM 55.0 °F - 53.1 °F 93% 29.98 in 1.8 mi Calm Calm - N/A   Overcast
5:49 AM 55.4 °F - 53.6 °F 94% 29.98 in 0.8 mi Calm Calm - N/A   Overcast
5:53 AM 55.0 °F - 53.1 °F 93% 29.98 in 0.5 mi Calm Calm - N/A Fog Fog
6:00 AM 54.0 °F - 53.1 °F 97% 29.99 in 0.2 mi Calm Calm - N/A Fog Fog
6:28 AM 54.0 °F - 53.1 °F 97% 29.99 in 0.8 mi Calm Calm - N/A   Mist
6:32 AM 54.0 °F - 52.0 °F 93% 30.00 in 1.5 mi Calm Calm - N/A   Overcast
6:42 AM 54.0 °F - 53.1 °F 97% 30.00 in 0.2 mi Calm Calm - N/A Fog Fog
6:53 AM 54.0 °F - 53.1 °F 97% 30.00 in 0.2 mi Calm Calm - N/A Fog Fog
7:53 AM 55.0 °F - 54.0 °F 96% 30.01 in 0.2 mi Calm Calm - N/A Fog Fog
8:33 AM 57.0 °F - 55.9 °F 96% 30.01 in 1.0 mi Calm Calm - N/A   Mist
8:37 AM 57.9 °F - 55.9 °F 93% 30.01 in 2.5 mi Calm Calm - N/A   Overcast
8:44 AM 59.0 °F - 57.0 °F 93% 30.01 in 9.0 mi Calm Calm - N/A   Mostly Cloudy
8:53 AM 60.1 °F - 57.0 °F 90% 30.01 in 10.0 mi Calm Calm - N/A   Scattered Clouds
9:53 AM 66.9 °F - 55.9 °F 68% 29.99 in 10.0 mi South 3.5 mph - N/A   Clear
10:53 AM 73.0 °F - 57.0 °F 57% 29.98 in 10.0 mi Variable 3.5 mph - N/A   Clear
11:53 AM 75.0 °F - 57.0 °F 53% 29.97 in 10.0 mi SW 6.9 mph - N/A   Clear
12:53 PM 78.1 °F - 55.9 °F 46% 29.95 in 10.0 mi SW 8.1 mph - N/A   Clear
1:53 PM 80.1 °F 80.2 °F 55.9 °F 43% 29.94 in 10.0 mi SW 6.9 mph - N/A   Clear
2:53 PM 80.1 °F 80.2 °F 55.9 °F 43% 29.92 in 10.0 mi Variable 6.9 mph - N/A   Clear
3:53 PM 77.0 °F - 57.0 °F 50% 29.90 in 10.0 mi South 9.2 mph - N/A   Clear
4:53 PM 79.0 °F - 57.9 °F 48% 29.88 in 10.0 mi South 6.9 mph - N/A   Clear
5:53 PM 75.9 °F - 57.9 °F 54% 29.88 in 10.0 mi SSW 8.1 mph - N/A   Clear
6:53 PM 73.9 °F - 59.0 °F 59% 29.88 in 10.0 mi SSW 6.9 mph - N/A   Clear
7:53 PM 68.0 °F - 59.0 °F 73% 29.89 in 10.0 mi SSW 5.8 mph - N/A   Clear
8:53 PM 66.9 °F - 59.0 °F 76% 29.91 in 10.0 mi South 5.8 mph - N/A   Clear
9:53 PM 66.0 °F - 60.1 °F 81% 29.91 in 10.0 mi SE 3.5 mph - N/A   Clear
10:53 PM 66.0 °F - 60.1 °F 81% 29.91 in 10.0 mi East 4.6 mph - N/A   Clear
11:49 PM 64.4 °F - 60.8 °F 88% 29.90 in 10.0 mi East 4.6 mph - N/A   Scattered Clouds
11:53 PM 64.9 °F - 61.0 °F 87% 29.90 in 10.0 mi ESE 4.6 mph - N/A   Scattered Clouds